YO8SDE Weather Reports


time (UTC)temp
C
wind
direction
speed
KPH
gust
KPH
rain 1hr
cm
rain 24hr
cm
rain mn
cm
humidity
%
barometer
mb
20260506145522 28 164 6.4 8.0 0.00 0.00 0.00 25 1000.0
20260506145026 28 111 9.7 12.9 0.00 0.00 0.00 26 1000.0
20260506144040 28 134 6.4 6.4 0.00 0.00 0.00 25 1000.0
20260506143520 28 202 3.2 4.8 0.00 0.00 0.00 26 1000.0
20260506143020 28 218 11.3 16.1 0.00 0.00 0.00 25 1000.0
20260506142521 28 219 9.7 14.5 0.00 0.00 0.00 25 1000.0
20260506142021 29 210 6.4 6.4 0.00 0.00 0.00 24 1000.0
20260506141521 29 120 4.8 4.8 0.00 0.00 0.00 24 1000.0
20260506141021 28 207 8.0 9.7 0.00 0.00 0.00 24 1000.0
20260506140520 29 214 8.0 8.0 0.00 0.00 0.00 24 1000.0
20260506140021 28 222 6.4 8.0 0.00 0.00 0.00 24 1000.0
20260506135521 28 211 8.0 8.0 0.00 0.00 0.00 25 1000.0
20260506135020 29 229 6.4 6.4 0.00 0.00 0.00 24 1000.0
20260506134521 28 170 9.7 14.5 0.00 0.00 0.00 25 1000.0
20260506134021 28 163 11.3 11.3 0.00 0.00 0.00 25 1000.0
20260506133522 29 98 6.4 8.0 0.00 0.00 0.00 24 1000.0
20260506133021 29 180 12.9 12.9 0.00 0.00 0.00 24 1000.0
20260506132520 29 171 9.7 11.3 0.00 0.00 0.00 24 1000.0
20260506132021 29 201 4.8 6.4 0.00 0.00 0.00 25 1000.0
20260506131521 28 193 17.7 24.1 0.00 0.00 0.00 24 1000.0
20260506131022 29 204 11.3 16.1 0.00 0.00 0.00 24 1000.0
20260506130521 29 132 6.4 9.7 0.00 0.00 0.00 24 1000.0
20260506130021 29 103 6.4 8.0 0.00 0.00 0.00 24 1000.0
20260506125522 29 199 8.0 12.9 0.00 0.00 0.00 24 1000.0
20260506125020 29 162 14.5 22.5 0.00 0.00 0.00 24 1000.0
20260506124521 29 144 12.9 16.1 0.00 0.00 0.00 24 1000.0
20260506124022 29 206 8.0 8.0 0.00 0.00 0.00 24 1000.0
20260506123524 28 190 12.9 14.5 0.00 0.00 0.00 24 1000.0
20260506123022 29 180 9.7 11.3 0.00 0.00 0.00 25 1000.0
20260506122521 30 148 4.8 9.7 0.00 0.00 0.00 23 1000.0
20260506122021 29 132 8.0 14.5 0.00 0.00 0.00 23 1000.0
20260506121520 30 138 3.2 9.7 0.00 0.00 0.00 23 1000.0
20260506121021 29 219 6.4 8.0 0.00 0.00 0.00 23 1000.0
20260506120522 28 129 12.9 16.1 0.00 0.00 0.00 23 1000.0
20260506120021 29 213 9.7 9.7 0.00 0.00 0.00 23 1000.0
20260506115520 28 210 16.1 22.5 0.00 0.00 0.00 24 1000.0
20260506115021 28 214 8.0 8.0 0.00 0.00 0.00 23 1000.0
20260506114521 28 209 9.7 9.7 0.00 0.00 0.00 24 1000.0
20260506114020 29 77 4.8 9.7 0.00 0.00 0.00 24 1000.0
20260506113520 29 168 9.7 9.7 0.00 0.00 0.00 23 1000.0
20260506113020 29 218 6.4 8.0 0.00 0.00 0.00 24 1000.0
20260506112520 28 131 8.0 9.7 0.00 0.00 0.00 23 1000.0
20260506112020 28 181 8.0 8.0 0.00 0.00 0.00 24 1000.0
20260506111520 28 270 8.0 11.3 0.00 0.00 0.00 23 1000.0
20260506111023 29 187 3.2 9.7 0.00 0.00 0.00 24 1000.0
20260506110520 29 115 4.8 9.7 0.00 0.00 0.00 24 1000.0
20260506110021 29 174 6.4 8.0 0.00 0.00 0.00 24 1000.0
20260506105521 28 180 8.0 8.0 0.00 0.00 0.00 24 1000.0
20260506105022 28 122 3.2 8.0 0.00 0.00 0.00 24 1000.0
20260506104522 29 133 3.2 6.4 0.00 0.00 0.00 24 1000.0
20260506104020 28 163 11.3 11.3 0.00 0.00 0.00 25 1000.0
20260506103520 28 61 9.7 11.3 0.00 0.00 0.00 26 1000.0
20260506103022 27 222 14.5 16.1 0.00 0.00 0.00 26 1000.0
20260506102520 28 167 4.8 11.3 0.00 0.00 0.00 26 1000.0
20260506102020 28 232 6.4 8.0 0.00 0.00 0.00 26 1001.0
20260506101520 27 238 6.4 8.0 0.00 0.00 0.00 26 1001.0
20260506101021 28 214 8.0 8.0 0.00 0.00 0.00 27 1001.0
20260506100520 28 221 8.0 14.5 0.00 0.00 0.00 26 1001.0
20260506100022 28 197 8.0 16.1 0.00 0.00 0.00 28 1001.0
20260506095520 27 197 4.8 12.9 0.00 0.00 0.00 29 1001.0
20260506095020 28 114 6.4 9.7 0.00 0.00 0.00 26 1001.0
20260506094521 28 194 4.8 6.4 0.00 0.00 0.00 29 1001.0
20260506094020 28 215 4.8 9.7 0.00 0.00 0.00 28 1001.0
20260506093521 28 222 3.2 9.7 0.00 0.00 0.00 28 1001.0
20260506093020 28 174 6.4 8.0 0.00 0.00 0.00 29 1001.0
20260506092521 27 197 14.5 14.5 0.00 0.00 0.00 29 1001.0
20260506092021 28 167 3.2 3.2 0.00 0.00 0.00 28 1001.0
20260506091520 27 116 3.2 4.8 0.00 0.00 0.00 29 1001.0
20260506091020 27 181 4.8 4.8 0.00 0.00 0.00 29 1001.0
20260506090521 27 214 4.8 4.8 0.00 0.00 0.00 29 1001.0
20260506090020 28 171 3.2 3.2 0.00 0.00 0.00 30 1001.0
20260506085521 26 123 12.9 14.5 0.00 0.00 0.00 30 1001.0
20260506085021 27 123 3.2 4.8 0.00 0.00 0.00 29 1001.0
20260506084520 26 100 9.7 12.9 0.00 0.00 0.00 31 1001.0
20260506084020 26 217 3.2 4.8 0.00 0.00 0.00 32 1001.0
20260506083520 26 168 8.0 11.3 0.00 0.00 0.00 32 1001.0
20260506083020 25 198 4.8 6.4 0.00 0.00 0.00 32 1001.0
20260506082520 25 100 6.4 11.3 0.00 0.00 0.00 33 1001.0
20260506082020 25 109 4.8 8.0 0.00 0.00 0.00 33 1001.0
20260506081520 25 126 6.4 6.4 0.00 0.00 0.00 33 1001.0
20260506081021 25 140 4.8 6.4 0.00 0.00 0.00 33 1001.0
20260506080520 25 114 3.2 3.2 0.00 0.00 0.00 33 1001.0
20260506073520 24 159 3.2 3.2 0.00 0.00 0.00 33 1001.0
20260506073021 24 156 3.2 3.2 0.00 0.00 0.00 34 1001.0
20260506072520 23 88 1.6 4.8 0.00 0.00 0.00 36 1001.0
20260506072021 22 119 3.2 4.8 0.00 0.00 0.00 38 1001.0
20260506071521 22 95 9.7 12.9 0.00 0.00 0.00 40 1001.0
20260506071020 22 175 3.2 3.2 0.00 0.00 0.00 38 1001.0
20260506070521 21 102 4.8 6.4 0.00 0.00 0.00 40 1001.0
20260506062020 20 161 1.6 3.2 0.00 0.00 0.00 41 1002.0
20260506061521 19 59 1.6 3.2 0.00 0.00 0.00 43 1002.0
20260506061021 18 111 6.4 8.0 0.00 0.00 0.00 45 1002.0
20260506060521 18 103 8.0 9.7 0.00 0.00 0.00 45 1002.0
20260506051021 16 78 4.8 4.8 0.00 0.00 0.00 50 1001.0
20260506050520 16 111 1.6 3.2 0.00 0.00 0.00 49 1001.0
20260506045020 15 138 1.6 1.6 0.00 0.00 0.00 51 1001.0
20260506044520 15 134 0.0 1.6 0.00 0.00 0.00 53 1001.0
20260506044020 15 112 3.2 3.2 0.00 0.00 0.00 52 1001.0
20260506043521 14 92 3.2 3.2 0.00 0.00 0.00 55 1001.0
20260506043020 14 82 1.6 3.2 0.00 0.00 0.00 56 1001.0
20260506042520 13 91 1.6 3.2 0.00 0.00 0.00 57 1001.0
20260506042020 13 96 3.2 4.8 0.00 0.00 0.00 58 1001.0
20260506041520 13 96 4.8 6.4 0.00 0.00 0.00 57 1001.0
20260506041020 13 112 1.6 3.2 0.00 0.00 0.00 58 1001.0
20260506040520 13 81 1.6 3.2 0.00 0.00 0.00 58 1001.0
20260506040020 13 96 1.6 3.2 0.00 0.00 0.00 59 1001.0
20260506035520 12 65 3.2 4.8 0.00 0.00 0.00 59 1001.0
20260506035020 12 90 8.0 8.0 0.00 0.00 0.00 60 1001.0
20260506034527 12 89 3.2 3.2 0.00 0.00 0.00 59 1001.0
20260506034021 12 84 1.6 3.2 0.00 0.00 0.00 60 1001.0
20260506033520 12 102 1.6 1.6 0.00 0.00 0.00 60 1001.0
20260506033020 12 111 1.6 1.6 0.00 0.00 0.00 63 1001.0
20260506032520 11 101 0.0 0.0 0.00 0.00 0.00 65 1001.0
20260506032020 11 116 0.0 0.0 0.00 0.00 0.00 67 1001.0
20260506031521 11 122 0.0 0.0 0.00 0.00 0.00 67 1001.0
20260506031020 11 115 0.0 0.0 0.00 0.00 0.00 67 1001.0
20260506030520 11 119 0.0 0.0 0.00 0.00 0.00 66 1001.0
20260506030021 11 118 0.0 0.0 0.00 0.00 0.00 66 1001.0
20260506025521 10 119 0.0 0.0 0.00 0.00 0.00 66 1001.0
20260506025020 11 116 0.0 0.0 0.00 0.00 0.00 65 1001.0
20260506024522 11 116 0.0 0.0 0.00 0.00 0.00 64 1001.0
20260506024020 11 117 0.0 0.0 0.00 0.00 0.00 64 1001.0
20260506023522 11 119 0.0 0.0 0.00 0.00 0.00 63 1001.0
20260506023020 11 116 0.0 0.0 0.00 0.00 0.00 65 1001.0
20260506022520 11 117 0.0 0.0 0.00 0.00 0.00 64 1001.0
20260506022020 11 123 0.0 0.0 0.00 0.00 0.00 65 1001.0
20260506021520 11 128 0.0 0.0 0.00 0.00 0.00 62 1001.0
20260506021022 11 135 0.0 0.0 0.00 0.00 0.00 62 1001.0
20260506020520 11 129 0.0 0.0 0.00 0.00 0.00 61 1001.0
20260506020021 11 135 0.0 0.0 0.00 0.00 0.00 61 1001.0
20260506015520 11 128 0.0 0.0 0.00 0.00 0.00 62 1001.0
20260506015022 11 126 0.0 0.0 0.00 0.00 0.00 61 1001.0
20260506014521 11 114 0.0 0.0 0.00 0.00 0.00 62 1001.0
20260506014021 11 107 0.0 0.0 0.00 0.00 0.00 63 1001.0
20260506013520 11 123 0.0 0.0 0.00 0.00 0.00 64 1001.0
20260506013020 11 121 0.0 0.0 0.00 0.00 0.00 65 1001.0
20260506012520 12 123 0.0 0.0 0.00 0.00 0.00 65 1001.0
20260506012021 12 127 0.0 0.0 0.00 0.00 0.00 63 1001.0
20260506011521 12 123 0.0 0.0 0.00 0.00 0.00 63 1001.0
20260506011021 12 134 0.0 0.0 0.00 0.00 0.00 63 1001.0
20260506010520 12 167 3.2 3.2 0.00 0.00 0.00 64 1001.0
20260506010021 12 149 1.6 3.2 0.00 0.00 0.00 66 1001.0
20260506005521 12 133 0.0 1.6 0.00 0.00 0.00 67 1001.0
20260506005021 12 136 1.6 1.6 0.00 0.00 0.00 68 1001.0
20260506004520 12 122 1.6 1.6 0.00 0.00 0.00 69 1001.0
20260506004021 12 112 0.0 0.0 0.00 0.00 0.00 70 1001.0
20260506003521 12 113 0.0 0.0 0.00 0.00 0.00 69 1001.0
20260506003021 12 105 1.6 1.6 0.00 0.00 0.00 70 1001.0
20260506002522 13 132 0.0 0.0 0.00 0.00 0.00 69 1001.0
20260506002021 13 160 3.2 3.2 0.00 0.00 0.00 68 1000.0
20260506001521 13 120 1.6 1.6 0.00 0.00 0.00 68 1000.0
20260506001020 13 99 3.2 4.8 0.00 0.00 0.00 68 1000.0
20260506000520 13 90 8.0 8.0 0.00 0.00 0.00 68 1000.0
20260506000021 13 101 3.2 3.2 0.00 0.00 0.00 68 1000.0
20260505235520 13 111 0.0 0.0 0.00 0.00 0.00 68 1000.0
20260505234535 13 135 3.2 4.8 0.00 0.00 0.00 68 1000.0
20260505234021 13 123 3.2 3.2 0.00 0.00 0.00 68 1000.0
20260505233520 13 105 4.8 4.8 0.00 0.00 0.00 68 1000.0
20260505233020 13 117 3.2 4.8 0.00 0.00 0.00 68 1000.0
20260505232521 13 118 1.6 3.2 0.00 0.00 0.00 67 1000.0
20260505232020 13 105 4.8 6.4 0.00 0.00 0.00 67 1000.0
20260505231520 13 108 8.0 8.0 0.00 0.00 0.00 66 1000.0
20260505231021 13 82 3.2 3.2 0.00 0.00 0.00 66 1000.0
20260505230520 13 122 11.3 12.9 0.00 0.00 0.00 65 1000.0
20260505230020 14 123 4.8 8.0 0.00 0.00 0.00 65 1000.0
20260505225520 14 146 8.0 8.0 0.00 0.00 0.00 64 1000.0
20260505225020 14 109 3.2 3.2 0.00 0.00 0.00 64 1000.0
20260505224520 14 75 6.4 8.0 0.00 0.00 0.00 63 1000.0
20260505224020 14 90 11.3 14.5 0.00 0.00 0.00 63 1000.0
20260505223520 14 113 6.4 8.0 0.00 0.00 0.00 62 1000.0
20260505223021 14 90 1.6 3.2 0.00 0.00 0.00 62 1000.0
20260505222521 15 111 9.7 11.3 0.00 0.00 0.00 61 1000.0
20260505222020 15 91 6.4 9.7 0.00 0.00 0.00 61 1000.0
20260505221520 15 116 1.6 1.6 0.00 0.00 0.00 61 1000.0
20260505221020 15 114 3.2 3.2 0.00 0.00 0.00 61 1000.0
20260505220520 15 126 4.8 6.4 0.00 0.00 0.00 61 1000.0
20260505220021 15 117 9.7 11.3 0.00 0.00 0.00 60 1000.0
20260505215520 15 98 1.6 1.6 0.00 0.00 0.00 60 1000.0
20260505215021 15 125 3.2 4.8 0.00 0.00 0.00 60 1000.0
20260505214520 16 143 6.4 6.4 0.00 0.00 0.00 59 1000.0
20260505214020 16 91 4.8 4.8 0.00 0.00 0.00 58 1000.0
20260505213520 16 104 4.8 6.4 0.00 0.00 0.00 58 1000.0
20260505213021 16 123 3.2 4.8 0.00 0.00 0.00 57 1000.0
20260505212520 16 120 3.2 4.8 0.00 0.00 0.00 56 1000.0
20260505212020 17 131 4.8 4.8 0.00 0.00 0.00 54 1000.0
20260505211520 17 116 4.8 4.8 0.00 0.00 0.00 52 1000.0
20260505211021 17 120 4.8 6.4 0.00 0.00 0.00 51 1000.0
20260505210521 17 174 3.2 6.4 0.00 0.00 0.00 51 1000.0
20260505210021 17 109 4.8 6.4 0.00 0.00 0.00 51 1000.0
20260505205520 17 167 3.2 4.8 0.00 0.00 0.00 51 1000.0
20260505205021 17 157 3.2 4.8 0.00 0.00 0.00 50 1000.0
20260505204520 18 128 3.2 3.2 0.00 0.00 0.00 50 1000.0
20260505204021 18 103 3.2 4.8 0.00 0.00 0.00 49 1000.0
20260505203523 18 112 3.2 3.2 0.00 0.00 0.00 48 1000.0
20260505203020 18 111 0.0 1.6 0.00 0.00 0.00 47 1000.0
20260505202522 19 137 3.2 6.4 0.00 0.00 0.00 45 1000.0
20260505202024 19 182 4.8 6.4 0.00 0.00 0.00 45 1000.0
20260505201521 19 208 8.0 8.0 0.00 0.00 0.00 45 1000.0
20260505201021 19 204 3.2 4.8 0.00 0.00 0.00 45 1000.0
20260505200521 19 112 1.6 3.2 0.00 0.00 0.00 45 1000.0
20260505200021 19 168 3.2 6.4 0.00 0.00 0.00 44 1000.0
20260505195521 19 138 6.4 6.4 0.00 0.00 0.00 44 1000.0
20260505195021 20 153 4.8 6.4 0.00 0.00 0.00 44 1000.0
20260505194521 20 135 8.0 9.7 0.00 0.00 0.00 43 1000.0
20260505194020 20 192 6.4 6.4 0.00 0.00 0.00 44 1000.0
20260505193520 19 248 1.6 3.2 0.00 0.00 0.00 45 1000.0
20260505193022 20 128 1.6 1.6 0.00 0.00 0.00 44 1000.0
20260505192520 20 166 3.2 3.2 0.00 0.00 0.00 44 1000.0
20260505192024 20 147 4.8 9.7 0.00 0.00 0.00 43 1000.0
20260505191520 20 175 1.6 3.2 0.00 0.00 0.00 44 1000.0
20260505191021 20 123 0.0 0.0 0.00 0.00 0.00 44 1000.0
20260505190521 20 183 4.8 6.4 0.00 0.00 0.00 44 1000.0
20260505190020 20 244 8.0 11.3 0.00 0.00 0.00 44 1000.0
20260505185520 20 192 1.6 1.6 0.00 0.00 0.00 44 1000.0
20260505185020 20 172 3.2 4.8 0.00 0.00 0.00 44 1000.0
20260505184520 20 135 1.6 1.6 0.00 0.00 0.00 44 1000.0
20260505184021 20 179 3.2 4.8 0.00 0.00 0.00 43 1000.0
20260505183521 20 131 3.2 3.2 0.00 0.00 0.00 42 1000.0
20260505183021 21 128 3.2 3.2 0.00 0.00 0.00 43 1000.0
20260505182520 21 151 3.2 4.8 0.00 0.00 0.00 43 1000.0
20260505182021 21 124 3.2 4.8 0.00 0.00 0.00 42 1000.0
20260505181521 21 145 1.6 3.2 0.00 0.00 0.00 42 1000.0
20260505181021 21 180 3.2 3.2 0.00 0.00 0.00 41 1000.0
20260505180521 21 157 3.2 3.2 0.00 0.00 0.00 41 1000.0
20260505180020 22 161 1.6 1.6 0.00 0.00 0.00 40 1000.0
20260505175520 22 159 1.6 1.6 0.00 0.00 0.00 39 1000.0
20260505175020 22 168 3.2 3.2 0.00 0.00 0.00 37 1000.0
20260505174521 22 169 4.8 4.8 0.00 0.00 0.00 37 999.0
20260505174020 22 168 3.2 3.2 0.00 0.00 0.00 35 999.0
20260505173520 23 164 1.6 1.6 0.00 0.00 0.00 34 999.0
20260505173021 23 132 1.6 1.6 0.00 0.00 0.00 33 999.0
20260505172520 23 154 1.6 1.6 0.00 0.00 0.00 32 999.0
20260505172021 23 136 1.6 1.6 0.00 0.00 0.00 31 999.0
20260505171520 24 96 1.6 3.2 0.00 0.00 0.00 29 999.0
20260505171022 24 122 3.2 3.2 0.00 0.00 0.00 29 999.0
20260505170520 25 167 3.2 3.2 0.00 0.00 0.00 27 999.0
20260505170021 25 141 3.2 3.2 0.00 0.00 0.00 25 999.0
20260505165521 26 128 1.6 1.6 0.00 0.00 0.00 25 999.0
20260505165021 26 126 4.8 6.4 0.00 0.00 0.00 24 999.0
20260505164521 26 131 3.2 6.4 0.00 0.00 0.00 24 999.0
20260505164020 26 102 4.8 6.4 0.00 0.00 0.00 24 999.0
20260505163521 26 108 3.2 3.2 0.00 0.00 0.00 24 999.0
20260505163020 26 123 4.8 4.8 0.00 0.00 0.00 24 999.0
20260505162520 26 118 4.8 4.8 0.00 0.00 0.00 24 999.0
20260505162020 26 131 1.6 3.2 0.00 0.00 0.00 24 999.0
20260505161521 27 122 1.6 1.6 0.00 0.00 0.00 24 999.0
20260505161021 27 82 4.8 4.8 0.00 0.00 0.00 23 999.0
20260505160521 27 110 4.8 6.4 0.00 0.00 0.00 22 999.0
20260505153020 27 65 8.0 11.3 0.00 0.00 0.00 20 999.0
20260505152520 28 92 3.2 4.8 0.00 0.00 0.00 20 999.0
20260505152020 28 38 4.8 6.4 0.00 0.00 0.00 20 999.0
20260505151523 28 114 1.6 3.2 0.00 0.00 0.00 21 999.0
20260505151020 28 90 6.4 6.4 0.00 0.00 0.00 20 999.0
20260505150521 28 106 6.4 6.4 0.00 0.00 0.00 20 999.0